EDT,Max TemperatureF,Mean TemperatureF,Min TemperatureF,Max Dew PointF,MeanDew PointF,Min DewpointF,Max Humidity, Mean Humidity, Min Humidity, Max Sea Level PressureIn, Mean Sea Level PressureIn, Min Sea Level PressureIn, Max VisibilityMiles, Mean VisibilityMiles, Min VisibilityMiles, Max Wind SpeedMPH, Mean Wind SpeedMPH, Max Gust SpeedMPH,PrecipitationIn, CloudCover, Events, WindDirDegrees
2012-10-1,65,62,59,61,58,57,97,91,84,29.94,29.90,29.86,10,7,2,9,4,13,0.03,7,Rain,64
2012-10-2,80,71,62,72,64,59,97,86,74,29.94,29.87,29.83,10,4,0,8,3,9,0.25,7,Fog-Rain,43
2012-10-3,84,77,69,72,68,65,100,78,55,30.14,30.05,29.95,10,6,0,10,2,13,0.00,5,Fog,222
2012-10-4,81,70,59,64,60,56,90,68,45,30.20,30.16,30.13,10,10,8,13,4,16,T,1,Rain,250
2012-10-5,81,67,52,59,54,50,100,68,36,30.19,30.11,30.00,10,9,2,10,3,13,0.00,0,,237
2012-10-6,83,69,54,62,55,48,93,69,45,29.99,29.94,29.88,10,8,2,17,7,22,0.19,3,Rain,259
2012-10-7,55,50,44,52,47,43,93,85,77,30.17,30.08,30.00,10,9,2,16,6,26,0.47,7,Rain-Thunderstorm,37
2012-10-8,49,47,44,45,43,42,93,87,80,30.27,30.20,30.15,10,9,2,13,7,16,0.20,8,Rain,37
2012-10-9,63,55,46,53,47,43,96,78,60,30.20,30.14,30.08,10,9,3,10,4,,0.02,8,Rain,18
2012-10-10,73,60,47,52,48,42,96,70,44,30.12,30.03,29.96,10,10,9,18,6,25,0.00,3,,268
2012-10-11,67,53,39,44,39,35,92,63,34,30.31,30.23,30.14,10,10,10,9,3,13,0.00,0,,303
2012-10-12,73,57,41,48,43,39,96,63,29,30.38,30.22,30.17,10,10,9,15,5,21,0.00,0,,284
2012-10-13,66,52,37,45,39,35,86,65,43,30.49,30.41,30.34,10,10,10,9,2,20,0.00,0,,59
2012-10-14,76,58,40,58,49,38,92,68,43,30.30,30.17,30.00,10,10,6,18,4,26,0.00,2,,208
2012-10-15,73,63,53,64,57,41,93,71,48,29.99,29.84,29.70,10,9,2,18,6,25,0.37,6,Rain,235
2012-10-16,69,56,42,47,42,39,93,65,37,29.96,29.91,29.86,10,10,10,12,3,14,0.00,0,,266
2012-10-17,73,57,41,50,45,40,93,66,38,30.00,29.94,29.90,10,9,5,12,3,17,0.00,0,,204
2012-10-18,74,59,43,63,54,41,92,78,64,29.93,29.85,29.75,10,10,7,14,2,18,0.04,5,Rain-Thunderstorm,169
2012-10-19,74,60,46,61,55,39,93,65,37,29.78,29.75,29.65,10,5,0,16,3,21,0.01,4,Fog-Rain-Thunderstorm,240
2012-10-20,71,56,41,45,41,37,89,61,33,29.96,29.82,29.73,10,10,10,13,5,18,0.00,1,,292
2012-10-21,67,52,36,42,39,36,92,63,34,30.15,30.09,29.98,10,10,10,12,3,14,0.00,0,,290
2012-10-22,75,56,37,49,43,35,92,64,35,30.24,30.17,30.13,10,10,6,7,1,10,0.00,0,,228
2012-10-23,82,63,43,54,48,42,93,62,31,30.17,30.12,30.07,10,10,7,14,4,20,0.00,0,,216
2012-10-24,84,67,50,54,51,47,89,61,32,30.17,30.12,30.06,10,10,10,9,2,12,0.00,0,,215
2012-10-25,82,65,47,55,50,45,96,66,36,30.17,30.13,30.09,10,7,1,10,1,17,0.00,0,,176
2012-10-26,71,63,54,59,57,50,93,77,61,30.15,30.07,29.98,10,7,0,12,6,22,0.00,5,Fog,40
2012-10-27,68,64,60,59,56,49,90,74,58,29.99,29.86,29.76,10,10,8,18,11,24,0.00,5,,36
2012-10-28,69,59,49,52,47,41,86,66,45,29.74,29.66,29.59,10,10,8,21,12,26,0.06,5,Rain,9
2012-10-29,49,47,44,44,38,31,86,70,53,29.61,29.46,29.23,10,10,10,31,15,43,0.28,8,Rain,294
2012-10-30,50,45,40,32,29,26,62,52,42,29.55,29.38,29.21,10,10,10,36,16,121,T,6,Rain,255
2012-10-31,54,46,38,34,32,30,76,59,41,29.75,29.65,29.55,10,10,10,17,8,23,0.00,3,,252